Location: Gorze? G�rny
(49.8500°N, 19.5000°E)
Time: 04:17:08
(UTC+00:00)

Cosmos 1300 Rocket - Pass Details

Date: 13 May 2021
Orbit: 601 x 627 km, 82.5° (Epoch: 23 June)

Event Time Altitude Azimuth Distance (km) Brightness Sun altitude
Rises 22:08:20 0° 355° (N) 2,913 8.6 -21.2°
Reaches altitude 10° 22:10:42 10° 2° (N) 1,998 7.3 -21.3°
Maximum altitude 22:14:53 41° 74° (ENE) 896 4.4 -21.3°
Enters shadow 22:15:55 35° 108° (ESE) 996 4.4 -21.4°
